Showing default

RADUGA 2, 9416

Orbit data source: Space-Track

RADUGA 2, 9416 is a payload satellite owned by GUKOS RVSN (CIS) in GEO that was launched on Sat, 11 Sep 1976 UTC via a PROTON-K/DM launch vehicle from the Tyuratam Missile And Space Complex (TTMTR). Payload-class satellites include a variety of spacecraft equipped with specific instruments for various scientific and technological missions. These include communications satellites like Starlink; space stations such as the ISS; scientific satellites like the Hubble; Earth observation satellites from companies like Planet Labs, Umbra, and HawkEye 360; GPS; miniature CubeSats for education and research; and military/defense satellites.

Not visible in the next 10 days
Identifier
9416, 1976-092A
Orbit
GEO
Country
Flag of CISCIS
Related business
Manufacturer
OKB-10
Mission
Non-operational spacecraft
Bus & Motor
RADUGA, Unknown motor
Mass
1,965 kg wet, ~1,800 kg dry
Launch date (UTC)
1976-09-11 (50 years ago)
Launch vehicle
PROTON-K/DM
Launch site
Tyuratam Missile And Space Complex (TTMTR)
Object type
Payload
Rocket body
Debris
Shape & HBR
Unknown
Radar Cross Section
Medium (>0.1 m² and <1 m²)

Expand to show TLE details & history
Last TLE update: 9 hours ago

TLE from 9 hours ago
0 RADUGA 2
1  9416U 76092A   26130.12510321  .00000018  00000-0  00000+0 0  9999
2  9416   3.5736 270.1628 0028725  40.0333  26.9723  1.00281292128969
Epoch: 2026-05-10T03:00Z
TLE epoch observation values (Epoch: 2026-05-10T03:00:08.917Z)
Latitude
3.31347°
Longitude
64.29251°
Altitude
35,675.647 km
Speed
3.083 km/s
True Right ascension
22h 29m 02s
True Declination
3° 18' 36"
Sunlit
Object was in daylight at epoch
Visualization orbit readout
Latitude
Unknown
Longitude
Unknown
Altitude
Unknown
Speed
Unknown
Apparent Right ascension
Unknown
Apparent Declination
Unknown
Sunlit
N/A
Visualization observer readout
Local Sidereal Time
19:45:12
Azimuth
Unknown
Elevation
Unknown
Doppler factor
Unknown
Orbital elements
Apogee altitude
35,906.108 km
Perigee altitude
35,663.881 km
Semi-major axis
42,163.131 km
Eccentricity
0.00287
Inclination
3.5736°
RAAN
270.1628°
Arg. of periapsis
40.0333°
True anomaly
27.12207°
Mean anomaly
26.9723°
Eccentric anomaly
27.04714°
Mean motion
0.25069 °/min
Orbital period
1,436.01 mins
BSTAR
0
Loading maneuver chart data...
Computing Atmospheric mass density...
Loading historical data...
Loading historical data...
Loading historical data...
Loading historical data...
Loading historical data...
Loading historical data...
Loading historical data...

Documentation

Showing up to 5 results
|